Regional Weather Roundup
Issued by NWS

Home | Current Version | Previous Version | Text Only | Print | Product List | Glossary On
Versions: 1 2 3 4 5 6 7 8 9 10 11 12 13 14 15 16 17 18 19 20 21 22 23 24 25 26 27 28 29 30 31 32 33 34 35 36 37 38 39 40 41 42 43 44 45 46 47 48 49 50
000
ASUS45 KPSR 010710
RWRAZ

ARIZONA REGIONAL HOURLY WEATHER ROUNDUP
NATIONAL WEATHER SERVICE PHOENIX AZ
1200 AM MST SUN MAR 01 2015

NOTE: FAIR INDICATES FEW OR NO CLOUDS BELOW 12,000 FEET WITH NO
SIGNIFICANT WEATHER AND/OR OBSTRUCTIONS TO VISIBILITY.

AZZ001>003-036-010800-
NORTHWEST ARIZONA

CITY           SKY/WX    TMP DP  RH WIND       PRES   REMARKS
BULLHEAD CITY  MOCLDY    61  36  39 S5        29.86R
KINGMAN        CLOUDY    49  32  52 S9        29.89R
$$

AZZ004>008-015-016-018-010800-
NORTH CENTRAL ARIZONA

CITY           SKY/WX    TMP DP  RH WIND       PRES   REMARKS
GRAND CANYON   CLOUDY    32  29  88 CALM      29.95S
PRESCOTT       CLOUDY    43  37  79 CALM      29.94F
FLAGSTAFF      LGT RAIN  35  32  88 SW9       29.95S WCI  28
PAYSON         CLOUDY    45  43  93 S8G20     29.99S
PAGE           MOCLDY    40  34  79 NW6       29.96R
$$

AZZ009>014-017-010800-
NORTHEAST ARIZONA

CITY           SKY/WX    TMP DP  RH WIND       PRES   REMARKS
WINSLOW        CLOUDY    42  35  76 E5        29.95S
SAINT JOHNS    LGT RAIN  45  40  82 SW8       29.97R
WINDOW ROCK    LGT RAIN  36  32  85 CALM      29.99R
SHOW LOW       CLOUDY    39  37  93 SW13G21   30.00S WCI  32
$$

AZZ023-010800-
GREATER PHOENIX AREA

CITY           SKY/WX    TMP DP  RH WIND       PRES   REMARKS
PHOENIX        CLOUDY    64  46  52 CALM      29.89S
BUCKEYE        CLOUDY    59  50  72 S5        29.91S
LUKE AFB       CLOUDY    61  50  66 SW5       29.90R
DEER VALLEY    MOCLDY    59  48  67 E3        29.91R
SCOTTSDALE     CLOUDY    60  49  66 E5        29.93R
MESA-GATEWAY   PTCLDY    61  46  59 SE3       29.95R
$$

AZZ027-028-010800-
SOUTHWEST MARICOPA COUNTY AND PINAL COUNTY

CITY           SKY/WX    TMP DP  RH WIND       PRES   REMARKS
CASA GRANDE    CLOUDY    61  45  55 CALM      29.94R
$$

AZZ503-504-507>509-010800-
SOUTHEAST ARIZONA

CITY           SKY/WX    TMP DP  RH WIND       PRES   REMARKS
TUCSON         PTCLDY    57  44  62 E3        29.98F
DAVIS-MONTHAN  MOCLDY    52  44  74 SE5       29.97S
NOGALES        CLEAR     56  44  64 S12G21    30.02R
SIERRA VISTA   CLOUDY    56  41  57 S5        30.04S
DOUGLAS        CLEAR     54  40  59 CALM      30.04S
SAFFORD        CLOUDY    55  44  66 CALM      29.96S
$$

AZZ020-021-025-026-031-010800-
SOUTHWEST ARIZONA

CITY           SKY/WX    TMP DP  RH WIND       PRES   REMARKS
YUMA           PTCLDY    62  38  40 CALM      29.90R
$$

CAZ031-033-041-043-047-048-061-010800-
SOUTHERN CALIFORNIA

CITY           SKY/WX    TMP DP  RH WIND       PRES   REMARKS
DOWNTOWN L.A.  MOCLDY    53  48  83 CALM      29.91S
L.A. AIRPORT   MOCLDY    54  47  77 NE5       29.91S
SAN DIEGO      CLOUDY    60  49  66 SW7       29.94R
BURBANK        CLOUDY    51  45  79 CALM      29.90F
ONTARIO        LGT RAIN  52  47  83 SW3       29.91R
RIVERSIDE      MOCLDY    53  46  77 CALM      29.92R
PALM SPRINGS   MOCLDY    59  39  47 NW8       29.88S
EL CENTRO NAS  MOCLDY    61  41  47 W16       29.88F
IMPERIAL       MOCLDY    59  42  53 W13       29.87S
BLYTHE         MOCLDY    60  38  43 S7        29.88R
NEEDLES        CLOUDY    63  32  31 SW8       29.85R
$$

NVZ020-UTZ003-010800-
SOUTHERN NEVADA-UTAH

CITY           SKY/WX    TMP DP  RH WIND       PRES   REMARKS
LAS VEGAS      PTCLDY    54  28  36 S9        29.83R
SALT LAKE CITY MOCLDY    35  31  85 CALM      29.93R
$$

NMZ009-TXZ055-010800-
NEW MEXICO-WEST TEXAS

CITY           SKY/WX    TMP DP  RH WIND       PRES   REMARKS
ALBUQUERQUE    CLOUDY    34  30  85 N6        30.02R WCI  29
EL PASO        CLEAR     56  30  37 S7        30.01R
$$


........................KEY........................
SKY/WX - SKY CONDITION/WEATHER
TMP    - TEMPERATURE IN FAHRENHEIT
DP     - DEW POINT IN FAHRENHEIT
RH     - RELATIVE HUMIDITY IN PERCENT
WIND   - DIRECTION AND SPEED IN MILES PER HOUR (MPH)
VRB    - VARIABLE WIND DIRECTION
PRES   - MEAN SEA LEVEL PRESSURE IN INCHES OF MERCURY
         F - FALLING PRESSURE   R - RISING PRESSURE
         S - STEADY PRESSURE
VSB    - VISIBILITY IN MILES
HX     - HEAT INDEX IN FAHRENHEIT
WCI    - WIND CHILL INDEX IN FAHRENHEIT
TC     - TEMPERATURE IN CELSIUS WHICH IS ALSO KNOWN AS
         TEMPERATURE IN CENTIGRADE
AFB    - AIR FORCE BASE
         LUKE AFB IS LUKE AIR FORCE BASE
         DAVIS-MONTHAN IS DAVIS-MONTHAN AIR FORCE BASE
NAS    - NAVAL AIR STATION
         EL CENTRO NAS IS EL CENTRO NAVAL AIR STATION
N/A    - NOT AVAILABLE



USA.gov is the U.S. government's official web portal to all federal, state and local government web resources and services.